[[{"header":{"parameterUnit":"m.s-1","parameterCategory":1,"la1":30.2992,"la2":30.254,"lo1":-89.0895,"lo2":-89.0443,"dy":0.0025,"dx":0.0025,"nx":19,"ny":19,"refTime":"2026-03-25T21:00:00:Z","depth":0,"parameterNumber":2,"parameterNumberName":"U-component_of_WINDS"},"data":[0,0,0,0.9103,0.9102,0.9026,0.9026,0.8951,0.8951,0,0,0,0,0,0,0,0,0,0,0,0.9141,0.9141,0.9104,0.9102,0.9026,0.9025,0.8951,0.8951,0,0,0,0,0,0,0,0,0,0,0,0.9141,0.9141,0.9141,0.9102,0.9026,0.9025,0.8951,0.9,0,0,0,0,0,0,0,0,0,0,0.907,0.9119,0.9141,0.9141,0.9102,0.9026,0.9025,0.9002,0.8997,0.8996,0,0.8999,0,0.8974,0.8947,0.8947,0,0,0,0.9091,0.9124,0.909,0.9141,0.9101,0.9026,0.9057,0.8999,0.8994,0.8989,0.8998,0.8994,0.8973,0.8947,0.8947,0.8977,0.8978,0,0,0.9095,0.9135,0.9094,0.9087,0.9101,0.906,0.9055,0.8996,0.9007,0.8997,0.8992,0.8971,0.8947,0.8946,0.8976,0.8977,0,0,0,0.9115,0.9138,0.9105,0.9091,0.9075,0.9058,0.9052,0.901,0.8996,0.8991,0.8971,0.8946,0.8946,0.8976,0.8977,0.905,0,0,0,0.9117,0.915,0.9108,0.9131,0.9077,0.9042,0.9068,0.9,0.8992,0.8971,0.8946,0.8945,0.8975,0.8976,0.9046,0.9078,0,0,0,0.9141,0.9152,0.9146,0.9134,0.9102,0.9042,0.9024,0.8997,0.898,0.8947,0.8945,0.8974,0.8976,0.9043,0.9073,0.9099,0,0,0,0.9177,0.9211,0.9148,0.9178,0.9103,0.9087,0.9024,0.9009,0.899,0.8946,0.8975,0.8977,0.9042,0.9069,0.9096,0.913,0.9148,0,0,0.9242,0.9221,0.9235,0.9176,0.9182,0.9096,0.9111,0.9055,0.9015,0.8992,0.8992,0.9047,0.9072,0.9099,0.9229,0.9243,0,0,0,0.9269,0.928,0.9273,0.9257,0.9215,0.9182,0.9119,0.9098,0.9077,0.9012,0.9062,0.9075,0.9089,0.9104,0.9116,0.9126,0.8984,0.8984,0.8984,0.9419,0.9366,0.9387,0.9325,0.931,0.9245,0.9228,0.9189,0.9139,0.9152,0.9146,0.9231,0.925,0.9258,0.9269,0.9157,0.9158,0.9158,0.9158,0.9511,0.9519,0.9452,0.9449,0.9393,0.9389,0.9327,0.9292,0.928,0.9231,0.9241,0.9194,0.9276,0.9283,0.9163,0.9162,0.9161,0.9161,0.9161,0.9605,0.96,0.9574,0.9546,0.953,0.9464,0.9457,0.9405,0.9356,0.9365,0.9353,0.9352,0.9346,0.9363,0.9363,0.9363,0.9363,0.9364,0.9364,0.9715,0.9683,0.9683,0.9642,0.9625,0.9596,0.953,0.9512,0.9478,0.9441,0.9441,0.9391,0.9293,0.9271,0.9368,0.9367,0.9367,0.9366,0.9366,0.9832,0.9797,0.9797,0.9781,0.9728,0.9716,0.9649,0.9616,0.9592,0.959,0.9538,0.9473,0.9447,0.9437,0.9418,0.9548,0.9548,0.9548,0.9548,0.9913,0.9894,0.9884,0.986,0.9831,0.9771,0.9773,0.9722,0.9664,0.9646,0.9619,0.9589,0.9581,0.956,0.9547,0.9529,0.9684,0.9684,0.9684,0.9983,0.9959,0.9972,0.9915,0.987,0.9832,0.9833,0.9808,0.9734,0.9689,0.9632,0.9626,0.9577,0.9563,0.952,0.9501,0.9467,0,0]},{"header":{"parameterUnit":"m.s-1","parameterCategory":1,"la1":30.2992,"la2":30.254,"lo1":-89.0895,"lo2":-89.0443,"dy":0.0025,"dx":0.0025,"nx":19,"ny":19,"refTime":"2026-03-25T21:00:00:Z","depth":0,"parameterNumber":3,"parameterNumberName":"V-component_of_WINDS"},"data":[0,0,0,1.835,1.8354,1.8551,1.8552,1.8788,1.879,0,0,0,0,0,0,0,0,0,0,0,1.8282,1.8283,1.835,1.8354,1.8551,1.8552,1.8788,1.879,0,0,0,0,0,0,0,0,0,0,0,1.8281,1.8283,1.8284,1.8355,1.8551,1.8552,1.8788,1.8645,0,0,0,0,0,0,0,0,0,0,1.8456,1.8383,1.8282,1.8284,1.8356,1.855,1.8552,1.8638,1.8653,1.8692,0,1.8724,0,1.8761,1.8805,1.8806,0,0,0,1.8362,1.837,1.8432,1.8284,1.8358,1.855,1.8464,1.8647,1.8664,1.8713,1.8727,1.8737,1.8765,1.8807,1.8808,1.9007,1.9007,0,0,1.8351,1.8312,1.842,1.8443,1.8411,1.8458,1.847,1.8658,1.8671,1.8728,1.8742,1.8768,1.8808,1.881,1.9006,1.9007,0,0,0,1.8315,1.8304,1.8362,1.8433,1.8469,1.8463,1.8478,1.8663,1.8685,1.8745,1.8771,1.8809,1.8812,1.9006,1.9007,1.8998,0,0,0,1.8308,1.8283,1.8357,1.8335,1.8466,1.8568,1.8478,1.8672,1.8694,1.877,1.8809,1.8814,1.9005,1.9006,1.8997,1.9001,0,0,0,1.8272,1.8279,1.8304,1.8332,1.8415,1.8566,1.8599,1.8678,1.871,1.8806,1.8815,1.9005,1.9006,1.8996,1.8999,1.9043,0,0,0,1.8222,1.8292,1.8303,1.8391,1.8413,1.8559,1.8599,1.8709,1.879,1.881,1.9005,1.9007,1.8996,1.8998,1.9041,1.9073,1.9082,0,0,1.8289,1.8299,1.8354,1.8369,1.8503,1.8532,1.8665,1.8777,1.8821,1.8943,1.8948,1.8997,1.8999,1.9043,1.9145,1.9152,0,0,0,1.8362,1.8401,1.8445,1.8521,1.8608,1.8684,1.8779,1.882,1.8925,1.8875,1.9025,1.9028,1.9055,1.9072,1.9078,1.9104,1.9012,1.9012,1.9012,1.84,1.8454,1.855,1.8628,1.8701,1.8799,1.8864,1.8937,1.897,1.9004,1.9041,1.9096,1.9115,1.912,1.9146,1.9061,1.9061,1.9061,1.9061,1.8504,1.8569,1.8611,1.872,1.8777,1.8868,1.8966,1.8987,1.9081,1.9073,1.91,1.9087,1.9125,1.9152,1.9061,1.9061,1.9061,1.9061,1.9061,1.8536,1.8576,1.8626,1.8742,1.8826,1.8903,1.8992,1.904,1.9087,1.9113,1.9158,1.9158,1.9166,1.9131,1.9131,1.9131,1.9131,1.9132,1.9132,1.8549,1.8606,1.8675,1.8774,1.883,1.891,1.901,1.9066,1.9142,1.917,1.9171,1.9201,1.9119,1.9098,1.9135,1.9134,1.9134,1.9134,1.9133,1.8636,1.8624,1.8731,1.8787,1.8908,1.8989,1.905,1.9162,1.9216,1.9258,1.9283,1.9214,1.9228,1.9224,1.9207,1.927,1.927,1.927,1.927,1.8663,1.8675,1.8796,1.8883,1.8973,1.904,1.916,1.9239,1.9319,1.9356,1.9354,1.9335,1.9329,1.9347,1.934,1.9325,1.9417,1.9417,1.9417,1.872,1.8743,1.8836,1.8914,1.9013,1.9097,1.9212,1.9311,1.9399,1.9425,1.9387,1.9381,1.9351,1.9338,1.9363,1.9351,1.9324,0,0]}]]